NOZ1HC ENAL-ENGM

Flight info

Callsign NOZ1HC
Flight time N/A
Altitude 31000
Route GIGIR DCT KEMIV DCT BELGU
Aircraft B738/M-SDE2E3GHILRWXY/LB1

Departure

Time 2026-05-04 17:31
Airport Ålesund Airport (ENAL)

Arrival

Time N/A
Airport Oslo-Gardermoen International Airport (ENGM)
Time Latitude Longitude Altitude Speed Heading
2026-05-04 17:02 62.55934 6.11555 73 ft 0 kts 155°
2026-05-04 17:20 62.55961 6.11525 78 ft 3 kts 152°
2026-05-04 17:20 62.55973 6.11512 78 ft 1 kts 155°
2026-05-04 17:23 62.55972 6.11512 78 ft 1 kts 154°
2026-05-04 17:23 62.55975 6.11536 78 ft 3 kts 66°
2026-05-04 17:23 62.56070 6.11677 71 ft 12 kts 63°
2026-05-04 17:24 62.56104 6.11835 69 ft 11 kts 64°
2026-05-04 17:24 62.56155 6.12055 68 ft 0 kts 51°
2026-05-04 17:27 62.56252 6.12133 72 ft 13 kts
2026-05-04 17:28 62.56365 6.12492 54 ft 18 kts 65°
2026-05-04 17:29 62.56452 6.13002 47 ft 7 kts
2026-05-04 17:29 62.56437 6.12828 48 ft 0 kts 245°
2026-05-04 17:31 62.56305 6.12219 62 ft 81 kts 245°
2026-05-04 17:31 62.55010 6.06241 1450 ft 166 kts 245°
2026-05-04 17:32 62.53925 6.01456 2740 ft 206 kts 244°
2026-05-04 17:33 62.51756 5.92063 4153 ft 254 kts 244°
2026-05-04 17:33 62.50825 5.88753 5123 ft 255 kts 226°
2026-05-04 17:34 62.45756 5.87958 6021 ft 275 kts 141°
2026-05-04 17:34 62.44550 5.91108 6818 ft 273 kts 118°
2026-05-04 17:35 62.42587 6.02945 9552 ft 286 kts 107°
2026-05-04 17:35 62.41376 6.11532 10623 ft 323 kts 108°
2026-05-04 17:35 62.40680 6.16274 11239 ft 336 kts 109°
2026-05-04 17:36 62.39957 6.21080 12073 ft 340 kts 109°
2026-05-04 17:36 62.39214 6.25940 12897 ft 344 kts 110°
2026-05-04 17:36 62.38448 6.30874 13690 ft 349 kts 110°
2026-05-04 17:36 62.37667 6.35863 14474 ft 353 kts 110°
2026-05-04 17:37 62.36872 6.40911 15231 ft 358 kts 110°
2026-05-04 17:37 62.36063 6.46013 15993 ft 363 kts 110°
2026-05-04 17:37 62.35243 6.51175 16754 ft 367 kts 110°
2026-05-04 17:37 62.34409 6.56401 17459 ft 371 kts 110°
2026-05-04 17:38 62.33564 6.61687 18162 ft 375 kts 110°
2026-05-04 17:38 62.32709 6.67017 18846 ft 380 kts 110°
2026-05-04 17:38 62.31838 6.72423 19442 ft 386 kts 111°
2026-05-04 17:38 62.30951 6.77923 20025 ft 392 kts 111°
2026-05-04 17:39 62.29138 6.89106 21214 ft 401 kts 111°
2026-05-04 17:39 62.28207 6.94812 21786 ft 406 kts 111°
2026-05-04 17:39 62.27269 7.00554 22317 ft 411 kts 111°
2026-05-04 17:40 62.26314 7.06381 22829 ft 416 kts 111°
2026-05-04 17:40 62.25346 7.12273 23337 ft 421 kts 111°
2026-05-04 17:40 62.24364 7.18231 23820 ft 426 kts 111°
2026-05-04 17:40 62.23369 7.24252 24312 ft 430 kts 111°
2026-05-04 17:41 62.22361 7.30330 24819 ft 434 kts 111°
2026-05-04 17:41 62.21326 7.36428 25304 ft 437 kts 114°
2026-05-04 17:41 62.19990 7.42174 25857 ft 435 kts 123°
2026-05-04 17:41 62.18378 7.47732 26549 ft 432 kts 125°
2026-05-04 17:42 62.16762 7.53146 27131 ft 432 kts 125°
2026-05-04 17:42 62.15135 7.58568 27643 ft 434 kts 125°
2026-05-04 17:42 62.13532 7.63940 28138 ft 435 kts 125°
2026-05-04 17:42 62.11905 7.69434 28711 ft 434 kts 125°
2026-05-04 17:43 62.10290 7.74905 29216 ft 434 kts 124°
2026-05-04 17:43 62.08685 7.80345 29717 ft 434 kts 124°
2026-05-04 17:43 62.07072 7.85806 31725 ft 439 kts 128°
2026-05-04 17:43 62.05401 7.91433 31408 ft 459 kts 128°
2026-05-04 17:44 62.03663 7.97273 31191 ft 469 kts 128°
2026-05-04 17:44 62.01916 8.03153 31021 ft 469 kts 128°
2026-05-04 17:44 62.00204 8.08918 30909 ft 464 kts 128°
2026-05-04 17:44 61.98462 8.14767 30781 ft 460 kts 129°
2026-05-04 17:45 61.94983 8.26347 30820 ft 472 kts 129°
2026-05-04 17:45 61.91433 8.38122 30804 ft 477 kts 129°
2026-05-04 17:46 61.87847 8.49968 30807 ft 477 kts 129°
2026-05-04 17:46 61.84258 8.61770 30674 ft 476 kts 129°
2026-05-04 17:47 61.82463 8.67655 30257 ft 476 kts 129°
2026-05-04 17:47 61.80666 8.73535 29800 ft 476 kts 129°
2026-05-04 17:47 61.78874 8.79378 29336 ft 473 kts 129°
2026-05-04 17:47 61.77092 8.85184 28923 ft 469 kts 130°
2026-05-04 17:48 61.75324 8.90929 28499 ft 464 kts 130°
2026-05-04 17:48 61.73571 8.96612 28108 ft 459 kts 130°
2026-05-04 17:48 61.71889 9.02046 27725 ft 455 kts 130°
2026-05-04 17:48 61.70162 9.07616 27326 ft 452 kts 130°
2026-05-04 17:49 61.68447 9.13129 26926 ft 449 kts 130°
2026-05-04 17:49 61.66750 9.18565 26536 ft 445 kts 130°
2026-05-04 17:49 61.65052 9.23991 26180 ft 443 kts 131°
2026-05-04 17:49 61.63376 9.29339 25772 ft 440 kts 131°
2026-05-04 17:50 61.61694 9.34688 25413 ft 438 kts 131°
2026-05-04 17:50 61.60021 9.40003 24972 ft 437 kts 131°
2026-05-04 17:50 61.58352 9.45292 24565 ft 434 kts 132°
2026-05-04 17:50 61.56686 9.50565 24213 ft 432 kts 132°
2026-05-04 17:51 61.55036 9.55775 23862 ft 429 kts 132°
2026-05-04 17:51 61.53387 9.60968 23484 ft 428 kts 133°
2026-05-04 17:51 61.51737 9.66144 23049 ft 426 kts 133°
2026-05-04 17:51 61.50094 9.71286 22646 ft 424 kts 132°
2026-05-04 17:52 61.48440 9.76455 22246 ft 421 kts 132°
2026-05-04 17:52 61.46846 9.81429 21871 ft 418 kts 132°
2026-05-04 17:52 61.45233 9.86450 21501 ft 415 kts 132°
2026-05-04 17:52 61.43647 9.91378 21107 ft 411 kts 132°
2026-05-04 17:53 61.42058 9.96307 20776 ft 407 kts 132°
2026-05-04 17:53 61.40479 10.01191 20417 ft 404 kts 132°
2026-05-04 17:53 61.38909 10.06037 20042 ft 401 kts 132°
2026-05-04 17:53 61.37347 10.10841 19689 ft 397 kts 132°
2026-05-04 17:54 61.35802 10.15585 19335 ft 394 kts 132°
2026-05-04 17:54 61.34266 10.20289 18991 ft 391 kts 131°
2026-05-04 17:54 61.32744 10.24957 18630 ft 389 kts 131°
2026-05-04 17:54 61.31230 10.29591 18274 ft 385 kts 131°
2026-05-04 17:55 61.29727 10.34174 17934 ft 383 kts 131°
2026-05-04 17:55 61.28225 10.38739 17498 ft 381 kts 131°
2026-05-04 17:55 61.26735 10.43267 17148 ft 378 kts 131°
2026-05-04 17:55 61.25265 10.47731 16831 ft 375 kts 131°
2026-05-04 17:56 61.23792 10.52190 16442 ft 371 kts 131°
2026-05-04 17:56 61.22302 10.56482 16137 ft 360 kts 139°
2026-05-04 17:56 61.20499 10.59699 15841 ft 337 kts 158°
2026-05-04 17:56 61.18442 10.61748 15578 ft 320 kts 168°
2026-05-04 17:57 61.16369 10.63245 15322 ft 312 kts 172°
2026-05-04 17:57 61.14320 10.64571 15066 ft 308 kts 172°
2026-05-04 17:57 61.12302 10.65854 14805 ft 305 kts 172°
2026-05-04 17:57 61.10266 10.67160 14563 ft 300 kts 171°
2026-05-04 17:58 61.08283 10.68443 14306 ft 297 kts 171°
2026-05-04 17:58 61.06340 10.69705 14010 ft 296 kts 170°
2026-05-04 17:58 61.04383 10.70982 13702 ft 296 kts 169°
2026-05-04 17:58 61.02424 10.72260 13375 ft 294 kts 169°
2026-05-04 17:59 61.00476 10.73537 13031 ft 292 kts 169°
2026-05-04 17:59 60.98552 10.74801 12723 ft 289 kts 169°
2026-05-04 17:59 60.94756 10.77297 12135 ft 286 kts 168°
2026-05-04 18:00 60.92864 10.78514 11780 ft 285 kts 169°
2026-05-04 18:00 60.90972 10.79718 11473 ft 284 kts 168°
2026-05-04 18:00 60.89097 10.80955 11163 ft 282 kts 168°
2026-05-04 18:00 60.87239 10.82184 10868 ft 280 kts 168°
2026-05-04 18:01 60.85391 10.83402 10572 ft 278 kts 168°
2026-05-04 18:01 60.83554 10.84608 10322 ft 276 kts 168°
2026-05-04 18:01 60.81708 10.85822 10079 ft 282 kts 168°
2026-05-04 18:02 60.77896 10.88303 9629 ft 288 kts 167°
2026-05-04 18:02 60.76019 10.89526 9372 ft 284 kts 167°
2026-05-04 18:02 60.74158 10.90736 9089 ft 281 kts 167°
2026-05-04 18:02 60.72331 10.91923 8813 ft 278 kts 167°
2026-05-04 18:03 60.70499 10.93109 8530 ft 275 kts 167°
2026-05-04 18:03 60.68685 10.94283 8268 ft 272 kts 167°
2026-05-04 18:03 60.66892 10.95437 7993 ft 269 kts 169°
2026-05-04 18:03 60.65109 10.96586 7723 ft 267 kts 168°
2026-05-04 18:04 60.63350 10.97722 7455 ft 264 kts 168°
2026-05-04 18:04 60.61606 10.98847 7206 ft 262 kts 168°
2026-05-04 18:04 60.58166 11.01058 6657 ft 258 kts 169°
2026-05-04 18:05 60.56458 11.02148 6402 ft 256 kts 168°
2026-05-04 18:05 60.54754 11.03239 6165 ft 257 kts 169°
2026-05-04 18:05 60.53040 11.04332 5897 ft 259 kts 169°
2026-05-04 18:05 60.51343 11.05430 5833 ft 249 kts 169°
2026-05-04 18:06 60.48158 11.07468 5617 ft 232 kts 169°
2026-05-04 18:06 60.46636 11.08431 5495 ft 227 kts 171°
2026-05-04 18:06 60.45117 11.08955 5278 ft 217 kts 180°
2026-05-04 18:07 60.43625 11.09325 5066 ft 215 kts 179°
2026-05-04 18:07 60.42142 11.09731 4839 ft 215 kts 179°
2026-05-04 18:07 60.40660 11.10146 4621 ft 217 kts 179°
2026-05-04 18:07 60.39151 11.10568 4301 ft 223 kts 179°
2026-05-04 18:08 60.37588 11.11004 3925 ft 232 kts 178°
2026-05-04 18:08 60.35996 11.11451 3560 ft 228 kts 178°
2026-05-04 18:08 60.34451 11.11894 3231 ft 219 kts 178°
2026-05-04 18:08 60.32981 11.12312 2935 ft 208 kts 177°
2026-05-04 18:09 60.30267 11.13028 2405 ft 186 kts 182°
2026-05-04 18:09 60.27883 11.12761 1966 ft 156 kts 199°
2026-05-04 18:10 60.26877 11.12226 1748 ft 144 kts 205°
2026-05-04 18:10 60.25946 11.11669 1606 ft 138 kts 203°
2026-05-04 18:10 60.25048 11.11155 1406 ft 131 kts 203°
2026-05-04 18:10 60.24476 11.10828 1298 ft 127 kts 204°
2026-05-04 18:11 60.23627 11.10328 1132 ft 127 kts 202°
2026-05-04 18:11 60.22773 11.09830 981 ft 133 kts 202°
2026-05-04 18:11 60.21914 11.09338 795 ft 122 kts 200°
2026-05-04 18:11 60.21112 11.08881 692 ft 119 kts 201°